| time (UTC) | temp F | wind direction | speed knots | gust knots | rain 1hr in | rain 24hr in | rain mn in | humidity % | barometer mb |
| 20260906134832 | 69 | 49 | 1.7 | 2.6 | 0.00 | 0.00 | 0.00 | 94 | 1020.4 |
| 20260906134327 | 69 | 56 | 1.7 | 2.6 | 0.00 | 0.00 | 0.00 | 94 | 1020.3 |
| 20260906133823 | 69 | 66 | 3.5 | 5.2 | 0.00 | 0.00 | 0.00 | 94 | 1020.4 |
| 20260906133318 | 69 | 56 | 0.9 | 1.7 | 0.00 | 0.00 | 0.00 | 95 | 1020.3 |
| 20260906132814 | 68 | 116 | 1.7 | 1.7 | 0.00 | 0.00 | 0.00 | 95 | 1020.4 |
| 20260906132309 | 68 | 117 | 4.3 | 6.1 | 0.00 | 0.00 | 0.00 | 96 | 1020.4 |
| 20260906131804 | 68 | 125 | 4.3 | 5.2 | 0.00 | 0.00 | 0.00 | 96 | 1020.3 |
| 20260906131259 | 68 | 173 | 4.3 | 8.7 | 0.00 | 0.00 | 0.00 | 96 | 1020.1 |
| 20260906130754 | 68 | 134 | 1.7 | 2.6 | 0.00 | 0.00 | 0.00 | 97 | 1020.0 |
| 20260906130250 | 68 | 38 | 3.5 | 5.2 | 0.00 | 0.00 | 0.00 | 97 | 1020.1 |
| 20260906125748 | 68 | 104 | 6.1 | 7.0 | 0.00 | 0.00 | 0.00 | 98 | 1019.9 |
| 20260906125247 | 68 | 64 | 1.7 | 5.2 | 0.00 | 0.00 | 0.00 | 98 | 1019.7 |
| 20260906124747 | 68 | 114 | 2.6 | 3.5 | 0.00 | 0.00 | 0.00 | 98 | 1019.8 |
| 20260906124243 | 68 | 175 | 1.7 | 5.2 | 0.00 | 0.00 | 0.00 | 99 | 1019.7 |
| 20260906123741 | 68 | 171 | 5.2 | 7.0 | 0.00 | 0.00 | 0.00 | 99 | 1019.6 |
| 20260906123236 | 68 | 67 | 1.7 | 3.5 | 0.00 | 0.00 | 0.00 | 99 | 1019.3 |
| 20260906122731 | 68 | 70 | 1.7 | 2.6 | 0.00 | 0.00 | 0.00 | 99 | 1019.4 |
| 20260906122226 | 68 | 130 | 0.9 | 1.7 | 0.00 | 0.00 | 0.00 | 99 | 1019.3 |
| 20260906121723 | 68 | 122 | 1.7 | 2.6 | 0.00 | 0.00 | 0.00 | 99 | 1019.3 |
| 20260906121219 | 67 | 175 | 1.7 | 2.6 | 0.00 | 0.00 | 0.00 | 99 | 1019.1 |
| 20260906120714 | 67 | 42 | 2.6 | 3.5 | 0.00 | 0.00 | 0.00 | 99 | 1019.0 |
| 20260906120210 | 67 | 59 | 0.0 | 0.0 | 0.00 | 0.00 | 0.00 | 99 | 1018.8 |
| 20260906115706 | 67 | 43 | 0.9 | 1.7 | 0.00 | 0.00 | 0.00 | 99 | 1018.9 |
| 20260906115201 | 67 | 117 | 4.3 | 6.1 | 0.00 | 0.00 | 0.00 | 98 | 1019.0 |
| 20260906114659 | 67 | 62 | 0.9 | 1.7 | 0.00 | 0.00 | 0.00 | 98 | 1018.9 |
| 20260906114155 | 67 | 78 | 1.7 | 2.6 | 0.00 | 0.00 | 0.00 | 98 | 1018.8 |
| 20260906113649 | 67 | 82 | 3.5 | 5.2 | 0.00 | 0.00 | 0.00 | 98 | 1018.8 |
| 20260906113150 | 67 | 129 | 0.9 | 1.7 | 0.00 | 0.00 | 0.00 | 98 | 1018.7 |
| 20260906112649 | 67 | 116 | 0.0 | 0.0 | 0.00 | 0.00 | 0.00 | 98 | 1018.8 |
| 20260906112146 | 67 | 99 | 2.6 | 3.5 | 0.00 | 0.00 | 0.00 | 98 | 1019.0 |
| 20260906111645 | 67 | 66 | 2.6 | 3.5 | 0.00 | 0.00 | 0.00 | 98 | 1018.9 |
| 20260906111140 | 67 | 104 | 0.9 | 0.9 | 0.00 | 0.00 | 0.00 | 98 | 1018.8 |
| 20260906110635 | 67 | 121 | 1.7 | 3.5 | 0.00 | 0.00 | 0.00 | 98 | 1019.0 |
| 20260906110130 | 67 | 90 | 1.7 | 2.6 | 0.00 | 0.00 | 0.00 | 98 | 1018.9 |
| 20260906105624 | 67 | 100 | 0.0 | 0.0 | 0.00 | 0.00 | 0.00 | 97 | 1019.1 |
| 20260906105121 | 67 | 52 | 0.9 | 1.7 | 0.00 | 0.00 | 0.00 | 97 | 1018.9 |
| 20260906104619 | 67 | 70 | 0.9 | 1.7 | 0.00 | 0.00 | 0.00 | 97 | 1018.8 |
| 20260906104114 | 67 | 60 | 1.7 | 3.5 | 0.00 | 0.00 | 0.00 | 97 | 1018.8 |
| 20260906103612 | 67 | 67 | 0.0 | 0.0 | 0.00 | 0.00 | 0.00 | 97 | 1018.9 |
| 20260906103108 | 67 | 73 | 1.7 | 1.7 | 0.00 | 0.00 | 0.00 | 97 | 1018.9 |
| 20260906102607 | 67 | 68 | 0.0 | 0.9 | 0.00 | 0.00 | 0.00 | 97 | 1018.9 |
| 20260906102057 | 67 | 52 | 1.7 | 2.6 | 0.00 | 0.00 | 0.00 | 97 | 1018.7 |
| 20260906101556 | 67 | 82 | 1.7 | 2.6 | 0.00 | 0.00 | 0.00 | 97 | 1018.9 |
| 20260906101051 | 67 | 216 | 0.0 | 0.9 | 0.00 | 0.00 | 0.00 | 97 | 1018.9 |
| 20260906100547 | 68 | 186 | 1.7 | 1.7 | 0.00 | 0.00 | 0.00 | 97 | 1018.6 |
| 20260906100047 | 68 | 58 | 0.0 | 0.9 | 0.00 | 0.00 | 0.00 | 97 | 1018.7 |
| 20260906095547 | 67 | 65 | 0.9 | 1.7 | 0.00 | 0.00 | 0.00 | 97 | 1018.6 |
| 20260906095043 | 68 | 53 | 0.0 | 0.9 | 0.00 | 0.00 | 0.00 | 97 | 1018.4 |
| 20260906094541 | 68 | 45 | 0.0 | 0.9 | 0.00 | 0.00 | 0.00 | 97 | 1018.5 |
| 20260906094038 | 68 | 78 | 0.0 | 0.0 | 0.00 | 0.00 | 0.00 | 96 | 1018.4 |
| 20260906093533 | 68 | 81 | 3.5 | 5.2 | 0.00 | 0.00 | 0.00 | 96 | 1018.4 |
| 20260906093034 | 68 | 108 | 0.9 | 1.7 | 0.00 | 0.00 | 0.00 | 96 | 1018.4 |
| 20260906092529 | 68 | 49 | 0.0 | 0.0 | 0.00 | 0.00 | 0.00 | 96 | 1018.6 |
| 20260906092024 | 68 | 73 | 0.0 | 0.0 | 0.00 | 0.00 | 0.00 | 96 | 1018.4 |
| 20260906091520 | 68 | 101 | 0.9 | 1.7 | 0.00 | 0.00 | 0.00 | 96 | 1018.6 |
| 20260906091016 | 68 | 168 | 1.7 | 1.7 | 0.00 | 0.00 | 0.00 | 96 | 1018.4 |
| 20260906090511 | 68 | 91 | 1.7 | 1.7 | 0.00 | 0.00 | 0.00 | 96 | 1018.3 |
| 20260906090010 | 68 | 44 | 0.0 | 0.0 | 0.00 | 0.00 | 0.00 | 96 | 1018.3 |
| 20260906085509 | 68 | 180 | 0.0 | 0.0 | 0.00 | 0.00 | 0.00 | 96 | 1018.2 |
| 20260906085010 | 68 | 62 | 0.9 | 1.7 | 0.00 | 0.00 | 0.00 | 96 | 1018.2 |
| 20260906084509 | 68 | 86 | 0.0 | 0.9 | 0.00 | 0.00 | 0.00 | 96 | 1018.0 |
| 20260906084008 | 68 | 59 | 0.0 | 0.0 | 0.00 | 0.00 | 0.00 | 96 | 1018.1 |
| 20260906083504 | 68 | 82 | 0.9 | 0.9 | 0.00 | 0.00 | 0.00 | 96 | 1018.0 |
| 20260906083003 | 68 | 129 | 0.9 | 0.9 | 0.00 | 0.00 | 0.00 | 96 | 1017.9 |
| 20260906082459 | 68 | 40 | 0.0 | 0.0 | 0.00 | 0.00 | 0.00 | 96 | 1018.0 |
| 20260906081954 | 68 | 77 | 0.0 | 0.9 | 0.00 | 0.00 | 0.00 | 96 | 1018.2 |
| 20260906081449 | 68 | 112 | 0.0 | 0.0 | 0.00 | 0.00 | 0.00 | 96 | 1018.1 |
| 20260906080945 | 69 | 70 | 0.0 | 0.0 | 0.00 | 0.00 | 0.00 | 96 | 1018.1 |
| 20260906080442 | 69 | 48 | 0.0 | 0.0 | 0.00 | 0.00 | 0.00 | 96 | 1018.1 |
| 20260906075937 | 69 | 46 | 0.0 | 0.0 | 0.00 | 0.00 | 0.00 | 96 | 1018.2 |
| 20260906075432 | 69 | 20 | 0.0 | 0.0 | 0.00 | 0.00 | 0.00 | 95 | 1017.9 |
| 20260906074927 | 69 | 81 | 0.0 | 0.0 | 0.00 | 0.00 | 0.00 | 95 | 1018.0 |
| 20260906074427 | 69 | 114 | 0.9 | 0.9 | 0.00 | 0.00 | 0.00 | 95 | 1018.1 |
| 20260906073925 | 69 | 346 | 0.0 | 0.0 | 0.00 | 0.00 | 0.00 | 95 | 1018.1 |
| 20260906073420 | 69 | 97 | 1.7 | 1.7 | 0.00 | 0.00 | 0.00 | 95 | 1018.1 |
| 20260906072917 | 69 | 69 | 0.0 | 0.0 | 0.00 | 0.00 | 0.00 | 95 | 1018.1 |
| 20260906072412 | 69 | 63 | 1.7 | 1.7 | 0.00 | 0.00 | 0.00 | 95 | 1018.2 |
| 20260906071908 | 69 | 115 | 0.9 | 1.7 | 0.00 | 0.00 | 0.00 | 95 | 1018.2 |
| 20260906071403 | 69 | 66 | 0.0 | 0.0 | 0.00 | 0.00 | 0.00 | 95 | 1018.3 |
| 20260906070859 | 70 | 37 | 0.0 | 0.0 | 0.00 | 0.00 | 0.00 | 95 | 1018.3 |
| 20260906070355 | 70 | 123 | 0.0 | 0.0 | 0.00 | 0.00 | 0.00 | 95 | 1018.1 |
| 20260906065850 | 70 | 53 | 1.7 | 2.6 | 0.00 | 0.00 | 0.00 | 95 | 1018.5 |
| 20260906065344 | 70 | 58 | 0.0 | 0.9 | 0.00 | 0.00 | 0.00 | 95 | 1018.5 |
| 20260906064840 | 70 | 39 | 0.0 | 0.0 | 0.00 | 0.00 | 0.00 | 95 | 1018.4 |
| 20260906064331 | 70 | 58 | 0.0 | 0.0 | 0.00 | 0.00 | 0.00 | 94 | 1018.4 |
| 20260906063830 | 70 | 92 | 0.0 | 0.0 | 0.00 | 0.00 | 0.00 | 94 | 1018.6 |
| 20260906063326 | 71 | 84 | 0.0 | 0.9 | 0.00 | 0.00 | 0.00 | 94 | 1018.5 |
| 20260906062821 | 71 | 91 | 0.9 | 1.7 | 0.00 | 0.00 | 0.00 | 94 | 1018.5 |
| 20260906062320 | 71 | 89 | 0.9 | 2.6 | 0.00 | 0.00 | 0.00 | 94 | 1018.5 |
| 20260906061816 | 71 | 70 | 0.9 | 1.7 | 0.00 | 0.00 | 0.00 | 94 | 1018.6 |
| 20260906061312 | 71 | 104 | 0.0 | 0.9 | 0.00 | 0.00 | 0.00 | 94 | 1018.4 |
| 20260906060806 | 71 | 104 | 1.7 | 1.7 | 0.00 | 0.00 | 0.00 | 93 | 1018.7 |
| 20260906060304 | 71 | 81 | 0.0 | 0.9 | 0.00 | 0.00 | 0.00 | 93 | 1018.7 |
| 20260906055759 | 71 | 60 | 1.7 | 2.6 | 0.00 | 0.00 | 0.00 | 93 | 1018.6 |
| 20260906055255 | 71 | 75 | 2.6 | 2.6 | 0.00 | 0.00 | 0.00 | 94 | 1018.5 |
| 20260906054750 | 71 | 127 | 3.5 | 3.5 | 0.00 | 0.00 | 0.00 | 94 | 1018.6 |
| 20260906054245 | 71 | 65 | 0.0 | 0.0 | 0.00 | 0.00 | 0.00 | 94 | 1018.7 |
| 20260906053742 | 71 | 67 | 0.9 | 1.7 | 0.00 | 0.00 | 0.00 | 94 | 1018.9 |
| 20260906053237 | 71 | 73 | 0.0 | 0.9 | 0.00 | 0.00 | 0.00 | 94 | 1018.6 |
| 20260906052732 | 72 | 50 | 0.0 | 0.9 | 0.00 | 0.00 | 0.00 | 94 | 1018.8 |
| 20260906052228 | 72 | 53 | 0.9 | 1.7 | 0.00 | 0.00 | 0.00 | 94 | 1018.6 |
| 20260906051725 | 72 | 15 | 0.9 | 0.9 | 0.00 | 0.00 | 0.00 | 94 | 1018.5 |
| 20260906051224 | 72 | 88 | 0.9 | 1.7 | 0.00 | 0.00 | 0.00 | 94 | 1018.4 |
| 20260906050720 | 72 | 78 | 0.0 | 0.9 | 0.00 | 0.00 | 0.00 | 94 | 1018.3 |
| 20260906050215 | 72 | 46 | 0.0 | 0.0 | 0.00 | 0.00 | 0.00 | 94 | 1018.3 |
| 20260906045714 | 72 | 61 | 0.0 | 0.0 | 0.00 | 0.00 | 0.00 | 94 | 1018.3 |
| 20260906045209 | 73 | 118 | 0.0 | 0.0 | 0.00 | 0.00 | 0.00 | 94 | 1018.3 |
| 20260906044705 | 73 | 77 | 0.0 | 0.9 | 0.00 | 0.00 | 0.00 | 94 | 1018.3 |
| 20260906044159 | 73 | 69 | 0.9 | 0.9 | 0.00 | 0.00 | 0.00 | 94 | 1018.2 |
| 20260906043656 | 73 | 73 | 0.9 | 1.7 | 0.00 | 0.00 | 0.00 | 94 | 1018.1 |
| 20260906043151 | 73 | 66 | 1.7 | 2.6 | 0.00 | 0.00 | 0.00 | 94 | 1018.2 |
| 20260906042651 | 73 | 89 | 0.0 | 0.9 | 0.00 | 0.00 | 0.00 | 94 | 1018.3 |
| 20260906042145 | 73 | 71 | 0.9 | 0.9 | 0.00 | 0.00 | 0.00 | 94 | 1018.1 |
| 20260906041641 | 73 | 73 | 0.9 | 0.9 | 0.00 | 0.00 | 0.00 | 94 | 1018.0 |
| 20260906041136 | 73 | 71 | 0.0 | 0.0 | 0.00 | 0.00 | 0.00 | 93 | 1018.0 |
| 20260906040631 | 73 | 70 | 0.0 | 0.0 | 0.00 | 0.00 | 0.00 | 93 | 1018.0 |
| 20260906040126 | 73 | 88 | 0.0 | 0.9 | 0.00 | 0.00 | 0.00 | 93 | 1018.1 |
| 20260906035621 | 73 | 69 | 0.9 | 0.9 | 0.00 | 0.00 | 0.00 | 93 | 1018.1 |
| 20260906035117 | 73 | 44 | 0.0 | 0.9 | 0.00 | 0.00 | 0.00 | 93 | 1018.1 |
| 20260906034617 | 73 | 46 | 0.0 | 0.0 | 0.00 | 0.00 | 0.00 | 93 | 1018.2 |
| 20260906034112 | 73 | 48 | 0.0 | 0.0 | 0.00 | 0.00 | 0.00 | 93 | 1018.1 |
| 20260906033608 | 73 | 43 | 0.0 | 0.0 | 0.00 | 0.00 | 0.00 | 93 | 1017.9 |
| 20260906033103 | 74 | 78 | 0.9 | 1.7 | 0.00 | 0.00 | 0.00 | 93 | 1018.2 |
| 20260906032559 | 73 | 65 | 0.0 | 0.0 | 0.00 | 0.00 | 0.00 | 93 | 1018.2 |
| 20260906032059 | 73 | 73 | 0.0 | 0.0 | 0.00 | 0.00 | 0.00 | 94 | 1018.2 |
| 20260906031554 | 74 | 83 | 0.0 | 0.0 | 0.00 | 0.00 | 0.00 | 94 | 1018.4 |
| 20260906031050 | 74 | 39 | 0.0 | 0.0 | 0.00 | 0.00 | 0.00 | 94 | 1018.3 |
| 20260906030549 | 74 | 45 | 0.0 | 0.0 | 0.00 | 0.00 | 0.00 | 94 | 1018.2 |
| 20260906030049 | 74 | 71 | 0.0 | 0.9 | 0.00 | 0.00 | 0.00 | 94 | 1018.2 |
| 20260906025549 | 74 | 35 | 0.0 | 0.9 | 0.00 | 0.00 | 0.00 | 93 | 1018.3 |
| 20260906025048 | 74 | 51 | 0.0 | 0.0 | 0.00 | 0.00 | 0.00 | 93 | 1018.2 |
| 20260906024543 | 74 | 26 | 0.0 | 0.0 | 0.00 | 0.00 | 0.00 | 93 | 1018.2 |
| 20260906024043 | 74 | 28 | 0.0 | 0.0 | 0.00 | 0.00 | 0.00 | 93 | 1018.2 |
| 20260906023539 | 74 | 43 | 0.0 | 0.0 | 0.00 | 0.00 | 0.00 | 93 | 1018.1 |
| 20260906023034 | 75 | 42 | 0.0 | 0.0 | 0.00 | 0.00 | 0.00 | 92 | 1018.0 |
| 20260906022529 | 75 | 35 | 0.0 | 0.0 | 0.00 | 0.00 | 0.00 | 92 | 1017.9 |
| 20260906022024 | 75 | 32 | 0.0 | 0.0 | 0.00 | 0.00 | 0.00 | 92 | 1017.8 |
| 20260906021520 | 75 | 33 | 0.0 | 0.0 | 0.00 | 0.00 | 0.00 | 92 | 1017.9 |
| 20260906021014 | 75 | 24 | 0.0 | 0.0 | 0.00 | 0.00 | 0.00 | 92 | 1017.8 |
| 20260906020513 | 75 | 43 | 0.9 | 0.9 | 0.00 | 0.00 | 0.00 | 91 | 1017.8 |
| 20260906020013 | 75 | 55 | 0.0 | 0.9 | 0.00 | 0.00 | 0.00 | 91 | 1017.7 |
| 20260906015512 | 76 | 47 | 0.0 | 0.0 | 0.00 | 0.00 | 0.00 | 90 | 1017.7 |
| 20260906015012 | 76 | 37 | 0.0 | 0.0 | 0.00 | 0.00 | 0.00 | 90 | 1017.6 |
| 20260906014513 | 76 | 8 | 0.0 | 0.0 | 0.00 | 0.00 | 0.00 | 90 | 1017.6 |
| 20260906014009 | 76 | 30 | 0.0 | 0.0 | 0.00 | 0.00 | 0.00 | 89 | 1017.2 |
| 20260906013503 | 76 | 31 | 0.0 | 0.0 | 0.00 | 0.00 | 0.00 | 89 | 1017.2 |
| 20260906012959 | 76 | 60 | 0.0 | 0.0 | 0.00 | 0.00 | 0.00 | 88 | 1017.1 |
| 20260906012454 | 77 | 62 | 0.0 | 0.0 | 0.00 | 0.00 | 0.00 | 88 | 1017.2 |
| 20260906011953 | 77 | 100 | 0.0 | 0.0 | 0.00 | 0.00 | 0.00 | 87 | 1017.2 |
| 20260906011449 | 77 | 70 | 0.0 | 0.9 | 0.00 | 0.00 | 0.00 | 87 | 1017.0 |
| 20260906010944 | 77 | 67 | 0.0 | 0.0 | 0.00 | 0.00 | 0.00 | 87 | 1017.2 |
| 20260906010440 | 77 | 43 | 0.0 | 0.0 | 0.00 | 0.00 | 0.00 | 87 | 1017.1 |
| 20260906005936 | 77 | 101 | 0.9 | 0.9 | 0.00 | 0.00 | 0.00 | 86 | 1017.2 |
| 20260906005435 | 77 | 59 | 0.0 | 0.0 | 0.00 | 0.00 | 0.00 | 86 | 1017.1 |
| 20260906004934 | 77 | 37 | 0.0 | 0.0 | 0.00 | 0.00 | 0.00 | 86 | 1017.1 |
| 20260906004428 | 77 | 124 | 0.9 | 0.9 | 0.00 | 0.00 | 0.00 | 86 | 1017.2 |
| 20260906003924 | 77 | 75 | 0.9 | 0.9 | 0.00 | 0.00 | 0.00 | 85 | 1017.2 |
| 20260906003419 | 77 | 34 | 0.0 | 0.0 | 0.00 | 0.00 | 0.00 | 85 | 1017.1 |
| 20260906002914 | 78 | 50 | 0.0 | 0.0 | 0.00 | 0.00 | 0.00 | 84 | 1017.1 |
| 20260906002408 | 78 | 124 | 0.0 | 0.9 | 0.00 | 0.00 | 0.00 | 84 | 1017.1 |
| 20260906001903 | 78 | 124 | 0.9 | 1.7 | 0.00 | 0.00 | 0.00 | 84 | 1016.8 |
| 20260906001359 | 78 | 123 | 1.7 | 2.6 | 0.00 | 0.00 | 0.00 | 83 | 1016.9 |
| 20260906000900 | 78 | 63 | 0.0 | 0.9 | 0.00 | 0.00 | 0.00 | 83 | 1016.9 |
| 20260906000359 | 78 | 49 | 0.9 | 1.7 | 0.00 | 0.00 | 0.00 | 83 | 1016.9 |
| 20260905235854 | 79 | 20 | 0.0 | 0.0 | 0.00 | 0.00 | 0.00 | 82 | 1017.0 |
| 20260905235349 | 79 | 106 | 0.9 | 1.7 | 0.00 | 0.00 | 0.00 | 81 | 1016.9 |
| 20260905234844 | 79 | 63 | 0.0 | 0.9 | 0.00 | 0.00 | 0.00 | 81 | 1016.9 |
| 20260905234339 | 79 | 61 | 0.0 | 0.0 | 0.00 | 0.00 | 0.00 | 80 | 1016.8 |
| 20260905233834 | 80 | 49 | 0.0 | 0.9 | 0.00 | 0.00 | 0.00 | 80 | 1016.9 |
| 20260905233329 | 79 | 65 | 0.9 | 1.7 | 0.00 | 0.00 | 0.00 | 80 | 1016.8 |
| 20260905232828 | 79 | 68 | 0.0 | 0.0 | 0.00 | 0.00 | 0.00 | 80 | 1016.9 |
| 20260905232325 | 80 | 33 | 0.0 | 0.9 | 0.00 | 0.00 | 0.00 | 79 | 1016.8 |
| 20260905231820 | 80 | 52 | 0.9 | 1.7 | 0.00 | 0.00 | 0.00 | 78 | 1016.7 |
| 20260905231315 | 80 | 52 | 1.7 | 2.6 | 0.00 | 0.00 | 0.00 | 77 | 1016.4 |
| 20260905230811 | 81 | 74 | 0.0 | 0.0 | 0.00 | 0.00 | 0.00 | 76 | 1016.6 |
| 20260905230309 | 81 | 73 | 0.0 | 0.0 | 0.00 | 0.00 | 0.00 | 77 | 1016.5 |
| 20260905225809 | 81 | 75 | 2.6 | 5.2 | 0.00 | 0.00 | 0.00 | 77 | 1016.5 |
| 20260905225306 | 82 | 54 | 0.9 | 1.7 | 0.00 | 0.00 | 0.00 | 76 | 1016.5 |
| 20260905224804 | 82 | 309 | 0.0 | 0.0 | 0.00 | 0.00 | 0.00 | 73 | 1016.2 |
| 20260905224300 | 82 | 30 | 0.9 | 1.7 | 0.00 | 0.00 | 0.00 | 74 | 1016.4 |
| 20260905223755 | 81 | 168 | 1.7 | 2.6 | 0.00 | 0.00 | 0.00 | 75 | 1016.4 |
| 20260905223252 | 82 | 113 | 1.7 | 3.5 | 0.00 | 0.00 | 0.00 | 76 | 1016.3 |
| 20260905222748 | 81 | 102 | 0.0 | 0.0 | 0.00 | 0.00 | 0.00 | 77 | 1016.0 |
| 20260905222246 | 80 | 56 | 0.0 | 0.0 | 0.00 | 0.00 | 0.00 | 77 | 1016.2 |
| 20260905221742 | 81 | 42 | 3.5 | 5.2 | 0.00 | 0.00 | 0.00 | 77 | 1016.3 |
| 20260905221239 | 80 | 106 | 1.7 | 2.6 | 0.00 | 0.00 | 0.00 | 76 | 1016.2 |
| 20260905220735 | 81 | 60 | 0.0 | 1.7 | 0.00 | 0.00 | 0.00 | 76 | 1016.2 |
| 20260905220231 | 81 | 115 | 1.7 | 5.2 | 0.00 | 0.00 | 0.00 | 76 | 1016.2 |
| 20260905215730 | 81 | 36 | 2.6 | 5.2 | 0.00 | 0.00 | 0.00 | 77 | 1016.3 |
| 20260905215225 | 81 | 67 | 1.7 | 1.7 | 0.00 | 0.00 | 0.00 | 78 | 1016.0 |
| 20260905214721 | 81 | 48 | 1.7 | 2.6 | 0.00 | 0.00 | 0.00 | 78 | 1016.2 |
| 20260905214216 | 81 | 64 | 3.5 | 3.5 | 0.00 | 0.00 | 0.00 | 76 | 1016.0 |
| 20260905213711 | 81 | 86 | 0.9 | 1.7 | 0.00 | 0.00 | 0.00 | 78 | 1016.3 |
| 20260905213207 | 81 | 55 | 0.9 | 2.6 | 0.00 | 0.00 | 0.00 | 79 | 1016.3 |
| 20260905212702 | 81 | 19 | 2.6 | 3.5 | 0.00 | 0.00 | 0.00 | 79 | 1016.4 |
| 20260905212201 | 82 | 53 | 5.2 | 7.8 | 0.00 | 0.00 | 0.00 | 79 | 1016.4 |
| 20260905211656 | 81 | 70 | 2.6 | 5.2 | 0.00 | 0.00 | 0.00 | 80 | 1016.5 |
| 20260905211152 | 81 | 127 | 4.3 | 6.1 | 0.00 | 0.00 | 0.00 | 81 | 1016.4 |
| 20260905210649 | 81 | 90 | 0.0 | 0.9 | 0.00 | 0.00 | 0.00 | 80 | 1016.4 |
| 20260905210148 | 82 | 96 | 1.7 | 2.6 | 0.00 | 0.00 | 0.00 | 81 | 1016.4 |
| 20260905205647 | 81 | 75 | 1.7 | 3.5 | 0.00 | 0.00 | 0.00 | 81 | 1016.4 |
| 20260905205142 | 81 | 69 | 0.9 | 2.6 | 0.00 | 0.00 | 0.00 | 82 | 1016.2 |
| 20260905204641 | 81 | 103 | 1.7 | 5.2 | 0.00 | 0.00 | 0.00 | 81 | 1016.3 |
| 20260905204136 | 82 | 40 | 3.5 | 5.2 | 0.00 | 0.00 | 0.00 | 81 | 1016.4 |
| 20260905203631 | 81 | 74 | 1.7 | 3.5 | 0.00 | 0.00 | 0.00 | 82 | 1016.4 |
| 20260905203126 | 82 | 30 | 2.6 | 3.5 | 0.00 | 0.00 | 0.00 | 81 | 1016.4 |
| 20260905202622 | 81 | 80 | 2.6 | 5.2 | 0.00 | 0.00 | 0.00 | 82 | 1016.3 |
| 20260905202117 | 82 | 89 | 2.6 | 5.2 | 0.00 | 0.00 | 0.00 | 81 | 1016.3 |
| 20260905201613 | 81 | 96 | 0.0 | 0.9 | 0.00 | 0.00 | 0.00 | 82 | 1016.4 |
| 20260905201112 | 81 | 36 | 0.9 | 2.6 | 0.00 | 0.00 | 0.00 | 83 | 1016.5 |
| 20260905200608 | 81 | 39 | 0.9 | 1.7 | 0.00 | 0.00 | 0.00 | 84 | 1016.4 |
| 20260905195556 | 80 | 97 | 2.6 | 6.1 | 0.00 | 0.00 | 0.00 | 84 | 1016.5 |
| 20260905195052 | 80 | 73 | 0.0 | 0.9 | 0.00 | 0.00 | 0.00 | 84 | 1016.6 |
| 20260905194551 | 80 | 59 | 1.7 | 6.1 | 0.00 | 0.00 | 0.00 | 83 | 1016.6 |
| 20260905194050 | 80 | 66 | 0.0 | 0.9 | 0.00 | 0.00 | 0.00 | 83 | 1016.4 |
| 20260905193545 | 80 | 62 | 0.0 | 0.9 | 0.00 | 0.00 | 0.00 | 84 | 1017.1 |
| 20260905193041 | 80 | 32 | 0.0 | 0.9 | 0.00 | 0.00 | 0.00 | 83 | 1016.8 |
| 20260905192536 | 81 | 79 | 1.7 | 5.2 | 0.00 | 0.00 | 0.00 | 83 | 1016.6 |
| 20260905192033 | 81 | 39 | 3.5 | 3.5 | 0.00 | 0.00 | 0.00 | 83 | 1016.2 |
| 20260905191530 | 81 | 107 | 3.5 | 5.2 | 0.00 | 0.00 | 0.00 | 83 | 1015.9 |
| 20260905191030 | 81 | 88 | 3.5 | 5.2 | 0.00 | 0.00 | 0.00 | 82 | 1016.3 |
| 20260905190527 | 81 | 69 | 1.7 | 2.6 | 0.00 | 0.00 | 0.00 | 83 | 1016.2 |
| 20260905190022 | 80 | 79 | 3.5 | 3.5 | 0.00 | 0.00 | 0.00 | 83 | 1015.9 |
| 20260905185522 | 81 | 138 | 5.2 | 7.8 | 0.00 | 0.00 | 0.00 | 83 | 1015.9 |
| 20260905185020 | 80 | 58 | 1.7 | 1.7 | 0.00 | 0.00 | 0.00 | 84 | 1016.0 |
| 20260905184515 | 81 | 78 | 2.6 | 5.2 | 0.00 | 0.00 | 0.00 | 84 | 1016.0 |
| 20260905184014 | 81 | 49 | 2.6 | 3.5 | 0.00 | 0.00 | 0.00 | 83 | 1016.2 |
| 20260905183514 | 81 | 57 | 3.5 | 3.5 | 0.00 | 0.00 | 0.00 | 85 | 1016.8 |
| 20260905183009 | 81 | 35 | 3.5 | 5.2 | 0.00 | 0.00 | 0.00 | 83 | 1017.3 |
| 20260905182508 | 80 | 45 | 1.7 | 3.5 | 0.00 | 0.00 | 0.00 | 83 | 1017.6 |
| 20260905182003 | 80 | 47 | 2.6 | 5.2 | 0.00 | 0.00 | 0.00 | 85 | 1017.8 |
| 20260905181458 | 79 | 42 | 0.9 | 1.7 | 0.00 | 0.00 | 0.00 | 86 | 1017.9 |
| 20260905180957 | 79 | 23 | 3.5 | 3.5 | 0.00 | 0.00 | 0.00 | 86 | 1018.3 |
| 20260905180452 | 79 | 28 | 1.7 | 1.7 | 0.00 | 0.00 | 0.00 | 86 | 1018.4 |
| 20260905175947 | 79 | 20 | 2.6 | 2.6 | 0.00 | 0.00 | 0.00 | 87 | 1018.1 |
| 20260905175446 | 78 | 54 | 3.5 | 6.1 | 0.00 | 0.00 | 0.00 | 87 | 1018.0 |
| 20260905174942 | 78 | 30 | 2.6 | 3.5 | 0.00 | 0.00 | 0.00 | 88 | 1018.0 |
| 20260905174437 | 77 | 339 | 2.6 | 3.5 | 0.00 | 0.00 | 0.00 | 90 | 1018.1 |
| 20260905173933 | 77 | 62 | 2.6 | 3.5 | 0.00 | 0.00 | 0.00 | 89 | 1018.0 |
| 20260905173429 | 76 | 27 | 0.9 | 0.9 | 0.00 | 0.00 | 0.00 | 93 | 1018.1 |
| 20260905172924 | 75 | 71 | 2.6 | 2.6 | 0.00 | 0.00 | 0.00 | 95 | 1018.3 |
| 20260905172422 | 75 | 30 | 0.9 | 1.7 | 0.00 | 0.00 | 0.00 | 96 | 1018.3 |
| 20260905171918 | 76 | 21 | 5.2 | 6.1 | 0.00 | 0.00 | 0.00 | 96 | 1018.3 |
| 20260905171415 | 76 | 349 | 1.7 | 1.7 | 0.00 | 0.00 | 0.00 | 96 | 1018.6 |
| 20260905170911 | 76 | 38 | 2.6 | 2.6 | 0.00 | 0.00 | 0.00 | 95 | 1018.8 |
| 20260905170407 | 76 | 21 | 2.6 | 2.6 | 0.00 | 0.00 | 0.00 | 94 | 1019.1 |
| 20260905165906 | 77 | 262 | 4.3 | 6.1 | 0.00 | 0.00 | 0.00 | 92 | 1019.1 |
| 20260905165401 | 77 | 33 | 0.0 | 0.9 | 0.00 | 0.00 | 0.00 | 92 | 1018.6 |
| 20260905164855 | 77 | 6 | 0.9 | 1.7 | 0.00 | 0.00 | 0.00 | 93 | 1018.6 |
| 20260905164350 | 77 | 55 | 0.9 | 1.7 | 0.00 | 0.00 | 0.00 | 93 | 1018.5 |
| 20260905163846 | 77 | 20 | 0.9 | 1.7 | 0.00 | 0.00 | 0.00 | 93 | 1018.6 |
| 20260905163342 | 76 | 53 | 0.9 | 0.9 | 0.00 | 0.00 | 0.00 | 93 | 1018.6 |
| 20260905162838 | 77 | 31 | 0.0 | 0.0 | 0.00 | 0.00 | 0.00 | 93 | 1018.6 |
| 20260905162337 | 76 | 57 | 0.9 | 0.9 | 0.00 | 0.00 | 0.00 | 93 | 1018.6 |
| 20260905161832 | 76 | 19 | 0.9 | 0.9 | 0.00 | 0.00 | 0.00 | 93 | 1018.7 |
| 20260905161332 | 77 | 17 | 1.7 | 1.7 | 0.00 | 0.00 | 0.00 | 92 | 1018.7 |
| 20260905160830 | 76 | 0 | 0.9 | 1.7 | 0.00 | 0.00 | 0.00 | 93 | 1018.3 |
| 20260905160319 | 76 | 61 | 0.9 | 0.9 | 0.00 | 0.00 | 0.00 | 92 | 1018.4 |
| 20260905155814 | 76 | 0 | 0.0 | 0.9 | 0.00 | 0.00 | 0.00 | 93 | 1018.4 |
| 20260905155313 | 76 | 38 | 0.9 | 1.7 | 0.00 | 0.00 | 0.00 | 93 | 1018.3 |
| 20260905154807 | 75 | 29 | 0.9 | 0.9 | 0.00 | 0.00 | 0.00 | 94 | 1018.2 |
| 20260905154303 | 75 | 41 | 1.7 | 1.7 | 0.00 | 0.00 | 0.00 | 95 | 1018.0 |
| 20260905153758 | 75 | 48 | 0.0 | 0.0 | 0.00 | 0.00 | 0.00 | 97 | 1018.3 |
| 20260905153255 | 74 | 51 | 0.9 | 1.7 | 0.00 | 0.00 | 0.00 | 97 | 1018.2 |
| 20260905152749 | 74 | 36 | 0.9 | 1.7 | 0.00 | 0.00 | 0.00 | 98 | 1018.1 |
| 20260905152248 | 74 | 28 | 0.9 | 0.9 | 0.00 | 0.00 | 0.00 | 98 | 1018.1 |
| 20260905151748 | 74 | 28 | 0.9 | 0.9 | 0.00 | 0.00 | 0.00 | 98 | 1018.1 |
| 20260905151244 | 74 | 19 | 0.9 | 0.9 | 0.00 | 0.00 | 0.00 | 98 | 1018.1 |
| 20260905150743 | 74 | 41 | 0.0 | 0.0 | 0.00 | 0.00 | 0.00 | 98 | 1017.9 |
| 20260905150238 | 74 | 54 | 0.0 | 0.9 | 0.00 | 0.00 | 0.00 | 99 | 1018.0 |
| 20260905145735 | 74 | 16 | 0.9 | 1.7 | 0.00 | 0.00 | 0.00 | 99 | 1017.8 |
| 20260905145230 | 73 | 4 | 1.7 | 2.6 | 0.00 | 0.00 | 0.00 | 99 | 1017.5 |
| 20260905144728 | 73 | 27 | 0.0 | 0.9 | 0.00 | 0.00 | 0.00 | 99 | 1017.9 |
| 20260905144224 | 73 | 48 | 0.9 | 1.7 | 0.00 | 0.00 | 0.00 | 99 | 1017.7 |
| 20260905143718 | 73 | 17 | 0.9 | 0.9 | 0.00 | 0.00 | 0.00 | 99 | 1017.6 |
| 20260905143218 | 73 | 31 | 0.0 | 0.9 | 0.00 | 0.00 | 0.00 | 99 | 1017.6 |
| 20260905142716 | 73 | 27 | 1.7 | 2.6 | 0.00 | 0.00 | 0.00 | 99 | 1017.7 |
| 20260905142211 | 73 | 45 | 0.0 | 0.9 | 0.00 | 0.00 | 0.00 | 99 | 1017.7 |
| 20260905141706 | 73 | 33 | 0.9 | 1.7 | 0.00 | 0.00 | 0.00 | 99 | 1017.4 |
| 20260905141203 | 73 | 30 | 0.0 | 0.0 | 0.00 | 0.00 | 0.00 | 99 | 1017.4 |
| 20260905140657 | 73 | 36 | 0.9 | 0.9 | 0.00 | 0.00 | 0.00 | 99 | 1017.4 |
| 20260905140156 | 73 | 37 | 1.7 | 1.7 | 0.00 | 0.00 | 0.00 | 99 | 1017.3 |
| 20260905135651 | 73 | 36 | 1.7 | 2.6 | 0.00 | 0.00 | 0.00 | 99 | 1017.2 |
| 20260905135147 | 73 | 49 | 0.9 | 0.9 | 0.00 | 0.00 | 0.00 | 99 | 1017.3 |